Location: Kitt Peak
(31.9633°N, 111.6000°W)
Time: 20:23:06
(UTC-07:00)

Amateur Radio Satellites - All Passes

Search period start: 17 April 2015 19:53
Search period end: 18 April 2015 19:53
Location: Kitt Peak, 31.9633°N, 111.6000°W

Satellite Date Start Highest point End Downlink Frequencies (MHz)
Time Altitude Azimuth
VERMONT LUNAR 17 Apr 19:53:48 19:57:11 68° 334° (NNW) 20:00:34 437.305
HO-68 17 Apr 20:00:15 20:07:10 55° 71° (ENE) 20:14:10 435.675
COMPASS 1 17 Apr 20:07:06 20:10:32 25° 73° (ENE) 20:14:04 437.405
CANX-2 17 Apr 20:11:01 20:15:08 50° 75° (ENE) 20:19:19 2200.000
SEEDS 17 Apr 20:17:52 20:21:53 43° 75° (ENE) 20:25:58 437.485
PRISM 17 Apr 20:20:17 20:22:09 13° 291° (WNW) 20:23:49 437.425
CUTE 1.7 + AOD 2 17 Apr 20:21:28 20:25:40 61° 77° (ENE) 20:29:55 437.475
STRAND 1 17 Apr 20:31:58 20:35:45 20° 291° (WNW) 20:39:21 437.568
PHONESAT 2.4 17 Apr 20:32:14 20:35:50 83° 150° (SSE) 20:39:25 2401.200-2431.200
CUBEBUG 2 17 Apr 20:33:03 20:35:30 16° 70° (ENE) 20:38:09 437.445
ZACube-1 17 Apr 20:38:35 20:39:39 11° 68° (ENE) 20:40:59 437.345
BRITE-PL 17 Apr 20:42:13 20:45:59 31° 263° (W) 20:49:40 437.365/2234.400
ISS 17 Apr 20:49:20 20:50:27 11° 30° (NNE) 20:51:40 145.825
Oscar 11 17 Apr 20:55:59 20:59:59 38° 74° (ENE) 21:04:02 145.826/435.025
AAUSAT CUBESAT 2 17 Apr 20:56:24 21:00:37 88° 254° (WSW) 21:04:52 437.432
DOVE 4 17 Apr 20:56:25 21:00:29 57° 260° (W) 21:04:37 437.250
CINEMA 3 17 Apr 21:08:55 21:13:04 90° 244° (WSW) 21:17:23 145.822/145.860
DX 1 17 Apr 21:15:10 21:18:24 21° 71° (ENE) 21:21:44 434.975-435.025
GOMX 1 17 Apr 21:15:56 21:19:07 20° 266° (W) 21:22:11 467.674
UWE-3 17 Apr 21:16:27 21:20:24 42° 74° (ENE) 21:24:31 435.000/436.395/437.385
SO-50 17 Apr 21:20:54 21:22:21 11° 45° (NE) 21:24:03 436.795
Cosmos 2499 17 Apr 21:29:04 21:33:11 13° 296° (WNW) 21:36:32 435.465 / 435.565
DELFI C3 17 Apr 21:29:16 21:33:20 74° 77° (ENE) 21:37:26 145.870
VERMONT LUNAR 17 Apr 21:32:23 21:35:07 22° 350° (N) 21:37:49 437.305
HUMSAT D 17 Apr 21:42:58 21:46:36 31° 73° (ENE) 21:50:20 437.325/437.525
COMPASS 1 17 Apr 21:43:03 21:46:13 20° 266° (W) 21:49:16 437.405
VELOX 1 17 Apr 21:47:00 21:50:15 21° 71° (ENE) 21:53:37 145.980
FUNcube-1 17 Apr 21:49:39 21:53:50 86° 78° (ENE) 21:58:10 145.935
HO-68 17 Apr 21:49:44 21:55:17 23° 266° (W) 22:00:33 435.675
CANX-2 17 Apr 21:51:02 21:51:26 10° 270° (W) 21:51:30 2200.000
SEEDS 17 Apr 21:56:25 21:57:58 11° 269° (W) 21:59:15 437.485
ANTELSAT 17 Apr 21:59:02 22:01:45 16° 92° (E) 22:04:41 437.575/2403.000
Cosmos 2491 17 Apr 21:59:42 22:05:09 20° 84° (E) 22:11:07 435.465 / 435.565
AISAT 17 Apr 22:00:33 22:04:25 31° 73° (ENE) 22:08:20 437.250
CUBEBUG 2 17 Apr 22:08:07 22:11:57 33° 263° (W) 22:15:50 437.445
ESTCUBE 1 17 Apr 22:09:18 22:12:31 20° 71° (ENE) 22:15:53 437.505/2401.250
UKube-1 17 Apr 22:09:39 22:13:58 86° 257° (WSW) 22:18:18 .
PHONESAT 2.4 17 Apr 22:11:16 22:14:22 26° 347° (NNW) 22:17:27 2401.200-2431.200
ZACube-1 17 Apr 22:11:32 22:15:36 48° 261° (W) 22:19:47 437.345
YUBILEINY 17 Apr 22:17:08 22:25:29 48° 78° (ENE) 22:33:49 435.215
CUBEBUG 1 17 Apr 22:18:27 22:21:42 21° 71° (ENE) 22:25:03 437.445
QB50P1 17 Apr 22:20:02 22:20:37 10° 91° (E) 22:21:30 145.935-145.965
ISS 17 Apr 22:23:58 22:27:11 70° 227° (SW) 22:30:24 145.825
Oscar 11 17 Apr 22:33:59 22:36:21 14° 268° (W) 22:38:30 145.826/435.025
QB50P2 17 Apr 22:40:33 22:43:44 21° 95° (E) 22:47:01 145.880/145.840
BUGSAT 1 17 Apr 22:41:55 22:43:43 13° 92° (E) 22:45:47 437.445
DX 1 17 Apr 22:50:55 22:54:32 25° 264° (W) 22:58:05 434.975-435.025
TIGRISAT 17 Apr 22:52:13 22:56:55 64° 101° (E) 23:01:33 435.000
UNISAT 6 17 Apr 22:52:24 22:57:06 67° 101° (E) 23:01:45 437.425
50 SAT 17 Apr 22:52:58 22:56:48 51° 260° (W) 23:00:42 437.505
UWE-3 17 Apr 22:55:35 22:57:16 12° 270° (W) 22:58:41 435.000/436.395/437.385
SO-50 17 Apr 22:58:39 23:03:37 85° 242° (WSW) 23:08:29 436.795
POPSAT HIP 1 17 Apr 23:03:25 23:07:25 38° 98° (E) 23:11:26 437.405
NANOSAT C BR1 17 Apr 23:04:18 23:08:18 39° 98° (E) 23:12:19 145.865
RS-15 17 Apr 23:07:12 23:16:04 26° 41° (NE) 23:25:39 29.354- 29.394
VERMONT LUNAR 17 Apr 23:10:47 23:13:22 20° 7° (N) 23:15:56 437.305
O/OREOS (USA 219) 17 Apr 23:12:36 23:17:00 48° 106° (ESE) 23:21:27 437.305
HUMSAT D 17 Apr 23:19:51 23:22:28 16° 267° (W) 23:24:57 437.325/437.525
VELOX 1 17 Apr 23:22:57 23:26:42 26° 264° (W) 23:30:23 145.980
POLYITAN 1 17 Apr 23:28:45 23:33:04 85° 101° (ESE) 23:37:23 437.675
ANTELSAT 17 Apr 23:34:18 23:38:45 40° 286° (WNW) 23:43:06 437.575/2403.000
AISAT 17 Apr 23:38:06 23:41:06 17° 266° (W) 23:43:56 437.250
DUCHIFAT 1 17 Apr 23:40:50 23:45:05 71° 283° (WNW) 23:49:21 145.980
ESTCUBE 1 17 Apr 23:45:15 23:49:14 29° 263° (W) 23:53:10 437.505/2401.250
PHONESAT 2.4 17 Apr 23:50:35 23:53:20 20° 4° (N) 23:56:04 2401.200-2431.200
Cosmos 2491 17 Apr 23:52:39 00:01:19 69° 279° (W) 00:10:01 435.465 / 435.565
QB50P1 17 Apr 23:52:40 23:56:48 48° 285° (WNW) 00:00:56 145.935-145.965
CUBEBUG 1 17 Apr 23:54:19 23:57:58 25° 264° (W) 00:01:31 437.445
SWISSCUBE 18 Apr 00:03:43 00:05:03 11° 67° (ENE) 00:06:41 437.505
SPROUT 18 Apr 00:12:20 00:16:34 66° 259° (W) 00:20:49 437.525
YUBILEINY 18 Apr 00:14:38 00:22:00 30° 273° (W) 00:29:03 435.215
TISAT 1 18 Apr 00:15:16 00:19:27 77° 258° (WSW) 00:23:38 437.305
BUGSAT 1 18 Apr 00:15:35 00:19:23 36° 286° (WNW) 00:23:10 437.445
QB50P2 18 Apr 00:16:02 00:19:36 25° 288° (WNW) 00:23:05 145.880/145.840
TIGRISAT 18 Apr 00:32:02 00:33:10 11° 293° (WNW) 00:33:59 435.000
UNISAT 6 18 Apr 00:32:42 00:33:23 10° 293° (WNW) 00:33:44 437.425
POPSAT HIP 1 18 Apr 00:40:40 00:43:00 14° 290° (WNW) 00:45:09 437.405
NANOSAT C BR1 18 Apr 00:41:36 00:43:51 14° 290° (WNW) 00:45:54 145.865
Cosmos 2504 18 Apr 00:41:39 00:48:54 35° 74° (ENE) 00:55:50 435.465 / 435.565
VERMONT LUNAR 18 Apr 00:48:05 00:51:23 50° 23° (NNE) 00:54:38 437.305
O/OREOS (USA 219) 18 Apr 00:54:26 00:56:46 13° 301° (WNW) 00:58:53 437.305
ITUPSAT 1 18 Apr 01:00:25 01:04:58 44° 74° (ENE) 01:09:33 437.325
RS-15 18 Apr 01:18:28 01:30:12 87° 243° (WSW) 01:42:22 29.354- 29.394
PHONESAT 2.4 18 Apr 01:28:46 01:32:09 41° 20° (NNE) 01:35:31 2401.200-2431.200
AIST 1 18 Apr 01:30:30 01:34:52 82° 279° (W) 01:39:12
BEESAT 18 Apr 01:36:40 01:41:26 69° 258° (WSW) 01:46:13 436.000
SWISSCUBE 18 Apr 01:37:43 01:42:27 61° 259° (W) 01:47:13 437.505
STARS 18 Apr 01:56:17 01:59:09 18° 70° (ENE) 02:02:10 437.465
Gurwin Techsat 1B 18 Apr 02:00:18 02:04:11 21° 94° (E) 02:08:15 435.225
Oscar 19 18 Apr 02:04:52 02:10:04 78° 285° (WNW) 02:15:16 437.125/150
KKS-1 18 Apr 02:15:33 02:19:49 50° 75° (ENE) 02:24:08 437.445
ITAMSAT 1 18 Apr 02:20:29 02:25:19 41° 98° (E) 02:30:11 435.822/435.867
VERMONT LUNAR 18 Apr 02:26:04 02:28:47 23° 216° (SW) 02:31:26 437.305
Cosmos 2504 18 Apr 02:35:00 02:42:18 37° 272° (W) 02:48:59 435.465 / 435.565
ITUPSAT 1 18 Apr 02:40:21 02:43:07 15° 268° (W) 02:45:37 437.325
GONETS M04 18 Apr 02:41:50 02:44:46 12° 63° (ENE) 02:48:31
HORYU 2 18 Apr 02:56:13 02:58:04 13° 92° (E) 03:00:11 437.375
JAS-2 18 Apr 03:05:10 03:06:58 12° 85° (E) 03:09:13 435.910
PHONESAT 2.4 18 Apr 03:07:09 03:10:23 33° 215° (SW) 03:13:36 2401.200-2431.200
MOZHAYETS 4 18 Apr 03:18:55 03:21:08 14° 69° (ENE) 03:23:35
CUSAT 1 18 Apr 03:21:56 03:22:02 10° 67° (ENE) 03:22:55 437.405
STARS 18 Apr 03:31:30 03:35:24 31° 263° (W) 03:39:17 437.465
RS-15 18 Apr 03:34:15 03:41:38 18° 257° (WSW) 03:48:06 29.354- 29.394
Gurwin Techsat 1B 18 Apr 03:39:26 03:44:17 37° 288° (WNW) 03:49:06 435.225
JUGNU 18 Apr 03:42:42 03:46:14 16° 167° (SSE) 03:49:50 437.505
KKS-1 18 Apr 03:55:43 03:56:49 11° 269° (W) 03:57:37 437.445
ITAMSAT 1 18 Apr 04:00:54 04:04:34 19° 291° (WNW) 04:08:03 435.822/435.867
BEESAT 2 18 Apr 04:29:01 04:33:06 84° 297° (WNW) 04:37:16 435.950
AO-7 18 Apr 04:30:38 04:38:58 74° 105° (ESE) 04:47:17 29.400- 29.500
HORYU 2 18 Apr 04:30:41 04:35:00 44° 286° (WNW) 04:39:15 437.375
GONETS M04 18 Apr 04:34:22 04:43:16 81° 83° (E) 04:52:06
AIST 2 18 Apr 04:37:27 04:41:13 33° 112° (ESE) 04:45:05 435.215
BEESAT 3 18 Apr 04:38:48 04:42:45 51° 300° (WNW) 04:46:46 437.485
DANDE 18 Apr 04:42:32 04:48:59 42° 78° (ENE) 04:56:45 436.750
JAS-2 18 Apr 04:46:29 04:53:09 76° 285° (WNW) 04:58:58 435.910
M-CUBED/EXP-1 PRIME 18 Apr 04:47:12 04:50:58 26° 66° (ENE) 04:54:57 437.505
MOZHAYETS 4 18 Apr 04:53:32 04:58:00 47° 262° (W) 05:02:29
CUSAT 1 18 Apr 04:58:36 05:05:43 70° 81° (E) 05:13:59 437.405
SRMSAT 18 Apr 05:24:07 05:27:45 17° 167° (SSE) 05:31:27 437.500
Cosmos 2499 18 Apr 05:29:03 05:35:23 27° 71° (ENE) 05:41:35 435.465 / 435.565
PRISM 18 Apr 05:29:50 05:32:22 16° 70° (ENE) 05:35:04 437.425
JUGNU 18 Apr 05:30:05 05:34:41 24° 176° (S) 05:39:17 437.505
AUBIESAT-1 18 Apr 05:36:35 05:41:10 81° 74° (ENE) 05:45:58 437.475
CUTE-I 18 Apr 05:47:12 05:51:00 20° 94° (E) 05:54:58 437.470
Cubesat XI-IV 18 Apr 05:53:54 05:58:06 24° 95° (E) 06:02:26 437.490
STRAND 1 18 Apr 06:03:21 06:07:51 33° 72° (ENE) 06:12:25 437.568
CUBESAT XI-V 18 Apr 06:05:56 06:10:35 72° 77° (ENE) 06:15:13 437.345
AIST 2 18 Apr 06:16:49 06:19:54 19° 308° (NW) 06:22:55 435.215
M-CUBED/EXP-1 PRIME 18 Apr 06:21:47 06:25:42 27° 261° (W) 06:29:44 437.505
AO-7 18 Apr 06:25:09 06:31:05 21° 300° (WNW) 06:36:39 29.400- 29.500
DANDE 18 Apr 06:25:55 06:32:13 34° 267° (W) 06:39:21 436.750
GONETS M04 18 Apr 06:34:05 06:39:15 16° 277° (W) 06:43:45
CUSAT 1 18 Apr 06:42:58 06:48:15 20° 270° (W) 06:53:34 437.405
PRISM 18 Apr 07:03:52 07:07:38 31° 262° (W) 07:11:22 437.425
SRMSAT 18 Apr 07:11:40 07:16:21 24° 176° (S) 07:21:03 437.500
JUGNU 18 Apr 07:18:38 07:23:08 23° 186° (S) 07:27:37 437.505
Cosmos 2499 18 Apr 07:21:24 07:28:53 46° 270° (W) 07:35:45 435.465 / 435.565
CUTE-I 18 Apr 07:26:19 07:31:14 38° 288° (WNW) 07:36:05 437.470
Cubesat XI-IV 18 Apr 07:33:31 07:38:14 32° 289° (WNW) 07:42:53 437.490
HO-68 18 Apr 07:37:15 07:39:02 11° 89° (E) 07:41:30 435.675
STRAND 1 18 Apr 07:43:03 07:47:07 23° 265° (W) 07:51:01 437.568
GOMX 1 18 Apr 07:44:43 07:46:40 12° 91° (E) 07:49:00 467.674
CANX-2 18 Apr 08:03:11 08:04:58 13° 91° (E) 08:07:01 2200.000
SEEDS 18 Apr 08:09:54 08:10:42 11° 90° (E) 08:11:48 437.485
CUTE 1.7 + AOD 2 18 Apr 08:13:04 08:15:31 15° 92° (E) 08:18:09 437.475
PCSat 18 Apr 08:32:44 08:36:30 20° 107° (ESE) 08:40:29 145.827
AAUSAT CUBESAT 2 18 Apr 08:45:16 08:48:24 21° 94° (E) 08:51:37 437.432
BRITE-PL 18 Apr 08:49:50 08:54:45 80° 281° (W) 09:00:04 437.365/2234.400
DOVE 4 18 Apr 08:59:14 09:04:09 55° 100° (E) 09:09:16 437.250
SRMSAT 18 Apr 09:00:24 09:04:59 23° 186° (S) 09:09:34 437.500
CINEMA 3 18 Apr 09:08:20 09:12:45 34° 97° (E) 09:17:19 145.822/145.860
JUGNU 18 Apr 09:08:31 09:11:34 14° 195° (SSW) 09:14:30 437.505
UWE-3 18 Apr 09:12:31 09:14:54 14° 91° (E) 09:17:32 435.000/436.395/437.385
DELFI C3 18 Apr 09:15:17 09:17:26 14° 92° (E) 09:19:46 145.870
GOMX 1 18 Apr 09:20:11 09:25:05 59° 284° (WNW) 09:30:16 467.674
HO-68 18 Apr 09:20:32 09:27:46 89° 104° (ESE) 09:34:57 435.675
O/OREOS (USA 219) 18 Apr 09:27:34 09:31:48 40° 67° (ENE) 09:36:01 437.305
COMPASS 1 18 Apr 09:30:12 09:34:27 85° 282° (WNW) 09:38:38 437.405
CANX-2 18 Apr 09:37:06 09:41:08 40° 286° (WNW) 09:45:07 2200.000
SEEDS 18 Apr 09:42:44 09:46:49 46° 285° (WNW) 09:50:52 437.485
FUNcube-1 18 Apr 09:43:22 09:47:06 25° 95° (E) 09:50:55 145.935
TIGRISAT 18 Apr 09:46:38 09:50:25 30° 72° (ENE) 09:54:22 435.000
UNISAT 6 18 Apr 09:46:59 09:50:50 31° 73° (ENE) 09:54:51 437.425
CUTE 1.7 + AOD 2 18 Apr 09:47:41 09:51:34 33° 286° (WNW) 09:55:22 437.475
POPSAT HIP 1 18 Apr 09:52:54 09:55:24 16° 70° (ENE) 09:58:04 437.405
NANOSAT C BR1 18 Apr 09:53:31 09:56:02 16° 70° (ENE) 09:58:44 145.865
UKube-1 18 Apr 10:02:47 10:06:10 23° 96° (E) 10:09:38 .
CUBEBUG 2 18 Apr 10:03:12 10:07:57 72° 100° (E) 10:12:43 437.445
ZACube-1 18 Apr 10:04:47 10:09:12 46° 99° (E) 10:13:37 437.345
Cosmos 2491 18 Apr 10:09:10 10:17:34 48° 78° (ENE) 10:26:04 435.465 / 435.565
PCSat 18 Apr 10:14:33 10:19:39 42° 300° (WNW) 10:24:47 145.827
POLYITAN 1 18 Apr 10:17:23 10:21:05 32° 74° (ENE) 10:24:54 437.675
AAUSAT CUBESAT 2 18 Apr 10:20:35 10:23:59 24° 288° (WNW) 10:27:16 437.432
Oscar 11 18 Apr 10:23:57 10:28:11 51° 285° (WNW) 10:32:23 145.826/435.025
ANTELSAT 18 Apr 10:28:04 10:32:28 82° 258° (WSW) 10:37:00 437.575/2403.000
DUCHIFAT 1 18 Apr 10:28:32 10:32:28 43° 75° (ENE) 10:36:28 145.980
50 SAT 18 Apr 10:35:30 10:38:55 26° 96° (E) 10:42:23 437.505
DOVE 4 18 Apr 10:38:51 10:41:33 14° 290° (WNW) 10:44:03 437.250
QB50P1 18 Apr 10:40:22 10:44:31 64° 77° (ENE) 10:48:42 145.935-145.965
DX 1 18 Apr 10:43:10 10:47:32 80° 102° (ESE) 10:51:53 434.975-435.025
CINEMA 3 18 Apr 10:46:00 10:49:46 22° 289° (WNW) 10:53:27 145.822/145.860
UWE-3 18 Apr 10:47:13 10:51:40 44° 285° (WNW) 10:56:06 435.000/436.395/437.385
DELFI C3 18 Apr 10:49:05 10:52:42 31° 286° (WNW) 10:56:14 145.870
SRMSAT 18 Apr 10:50:25 10:53:35 14° 195° (SSW) 10:56:39 437.500
BUGSAT 1 18 Apr 11:00:31 11:04:33 77° 78° (ENE) 11:08:35 437.445
QB50P2 18 Apr 11:03:24 11:07:34 62° 259° (W) 11:11:45 145.880/145.840
HUMSAT D 18 Apr 11:06:56 11:11:16 68° 283° (WNW) 11:15:33 437.325/437.525
O/OREOS (USA 219) 18 Apr 11:08:36 11:10:54 13° 259° (W) 11:12:56 437.305
HO-68 18 Apr 11:11:01 11:14:43 14° 299° (WNW) 11:17:57 435.675
YUBILEINY 18 Apr 11:11:14 11:19:53 65° 93° (E) 11:28:37 435.215
VELOX 1 18 Apr 11:17:29 11:21:55 84° 102° (ESE) 11:26:21 145.980
FUNcube-1 18 Apr 11:19:36 11:23:21 24° 288° (WNW) 11:26:59 145.935
TIGRISAT 18 Apr 11:24:07 11:27:15 18° 267° (W) 11:30:17 435.000
UNISAT 6 18 Apr 11:24:40 11:27:44 18° 267° (W) 11:30:40 437.425
POPSAT HIP 1 18 Apr 11:27:18 11:31:03 31° 263° (W) 11:34:48 437.405
NANOSAT C BR1 18 Apr 11:27:56 11:31:41 31° 263° (W) 11:35:24 145.865
AISAT 18 Apr 11:32:01 11:36:25 62° 284° (WNW) 11:40:47 437.250
UKube-1 18 Apr 11:38:45 11:42:15 23° 289° (WNW) 11:45:38 .
ESTCUBE 1 18 Apr 11:42:11 11:46:41 84° 103° (ESE) 11:51:10 437.505/2401.250
ZACube-1 18 Apr 11:42:45 11:45:13 14° 291° (WNW) 11:47:26 437.345
AIST 1 18 Apr 11:44:17 11:46:34 15° 74° (ENE) 11:49:04
CUBEBUG 1 18 Apr 11:47:07 11:51:28 85° 104° (ESE) 11:55:50 437.445
POLYITAN 1 18 Apr 11:54:37 11:57:09 15° 267° (W) 11:59:31 437.675
SPROUT 18 Apr 12:04:11 12:07:59 30° 97° (E) 12:11:49 437.525
TISAT 1 18 Apr 12:05:17 12:08:41 24° 96° (E) 12:12:10 437.305
Cosmos 2491 18 Apr 12:06:42 12:14:09 30° 273° (W) 12:21:18 435.465 / 435.565
DUCHIFAT 1 18 Apr 12:07:12 12:08:35 11° 269° (W) 12:09:41 145.980
50 SAT 18 Apr 12:10:48 12:13:35 18° 289° (WNW) 12:16:14 437.505
BEESAT 2 18 Apr 12:54:22 12:56:36 14° 50° (NE) 12:58:56 435.950
BEESAT 3 18 Apr 13:02:48 13:05:54 21° 53° (NE) 13:09:02 437.485
ITUPSAT 1 18 Apr 13:07:06 13:10:05 17° 93° (E) 13:13:16 437.325
SO-50 18 Apr 13:08:14 13:12:49 82° 298° (WNW) 13:17:35 436.795
YUBILEINY 18 Apr 13:10:44 13:17:28 22° 291° (WNW) 13:23:46 435.215
Cosmos 2504 18 Apr 13:12:27 13:20:02 36° 88° (E) 13:27:57 435.465 / 435.565
Oscar 19 18 Apr 13:16:43 13:21:51 89° 255° (WSW) 13:27:02 437.125/150
Gurwin Techsat 1B 18 Apr 13:16:55 13:20:48 22° 69° (ENE) 13:24:51 435.225
AIST 1 18 Apr 13:20:34 13:24:22 32° 268° (W) 13:28:07
ISS 18 Apr 13:23:06 13:26:03 33° 131° (SE) 13:29:02 145.825
RS-15 18 Apr 13:28:27 13:35:00 19° 104° (ESE) 13:42:21 29.354- 29.394
ITAMSAT 1 18 Apr 13:33:45 13:38:30 38° 72° (ENE) 13:43:18 435.822/435.867
AO-7 18 Apr 13:39:15 13:40:37 11° 55° (NE) 13:42:40 29.400- 29.500
SPROUT 18 Apr 13:40:54 13:43:53 18° 289° (WNW) 13:46:42 437.525
TISAT 1 18 Apr 13:41:06 13:44:23 21° 288° (WNW) 13:47:33 437.305
BEESAT 18 Apr 13:42:00 13:46:32 44° 99° (E) 13:51:05 436.000
SWISSCUBE 18 Apr 13:43:03 13:47:40 50° 99° (E) 13:52:16 437.505
KKS-1 18 Apr 14:12:59 14:15:25 15° 93° (E) 14:18:03 437.445
BEESAT 2 18 Apr 14:31:05 14:34:57 41° 246° (WSW) 14:38:44 435.950
BEESAT 3 18 Apr 14:40:30 14:43:55 25° 248° (WSW) 14:47:12 437.485
AIST 2 18 Apr 14:41:42 14:45:55 70° 60° (ENE) 14:50:02 435.215
ITUPSAT 1 18 Apr 14:43:45 14:48:09 37° 287° (WNW) 14:52:29 437.325
JAS-2 18 Apr 14:51:20 14:57:55 33° 68° (ENE) 15:04:45 435.910
Gurwin Techsat 1B 18 Apr 14:55:39 15:00:34 37° 262° (W) 15:05:27 435.225
ISS 18 Apr 15:00:08 15:02:30 18° 325° (NW) 15:04:50 145.825
Cosmos 2504 18 Apr 15:05:06 15:13:19 43° 284° (WNW) 15:21:35 435.465 / 435.565
ITAMSAT 1 18 Apr 15:14:20 15:18:09 20° 266° (W) 15:21:47 435.822/435.867
BEESAT 18 Apr 15:21:15 15:24:04 15° 291° (WNW) 15:26:40 436.000
SWISSCUBE 18 Apr 15:22:44 15:25:09 13° 292° (WNW) 15:27:18 437.505
HORYU 2 18 Apr 15:23:43 15:28:11 90° 3° (N) 15:32:41 437.375
AO-7 18 Apr 15:24:00 15:32:08 66° 71° (ENE) 15:40:20 29.400- 29.500
STARS 18 Apr 15:25:29 15:29:56 69° 102° (ESE) 15:34:21 437.465
RS-15 18 Apr 15:35:25 15:46:19 82° 298° (WNW) 15:57:24 29.354- 29.394
GONETS M04 18 Apr 15:36:40 15:41:29 17° 83° (E) 15:46:57
KKS-1 18 Apr 15:48:03 15:52:14 38° 286° (WNW) 15:56:21 437.445
JAS-2 18 Apr 16:35:22 16:42:40 46° 263° (W) 16:50:08 435.910
MOZHAYETS 4 18 Apr 16:53:28 16:58:02 60° 100° (E) 17:02:32
CUTE-I 18 Apr 17:04:35 17:08:29 22° 69° (ENE) 17:12:34 437.470
Cubesat XI-IV 18 Apr 17:11:21 17:15:38 26° 70° (ENE) 17:20:02 437.490
AO-7 18 Apr 17:19:20 17:25:32 22° 266° (W) 17:31:21 29.400- 29.500
GONETS M04 18 Apr 17:28:48 17:37:32 77° 277° (W) 17:46:21
VERMONT LUNAR 18 Apr 17:28:56 17:29:21 10° 140° (SE) 17:29:55 437.305
RS-15 18 Apr 17:52:52 18:00:49 21° 324° (NW) 18:08:27 29.354- 29.394
DANDE 18 Apr 17:53:12 17:55:40 34° 93° (E) 17:58:31 436.750
Cosmos 2499 18 Apr 17:58:26 18:05:19 28° 86° (E) 18:12:32 435.465 / 435.565
CUSAT 1 18 Apr 18:04:52 18:07:38 74° 281° (W) 18:11:02 437.405
CUBESAT XI-V 18 Apr 18:08:10 18:11:57 26° 95° (E) 18:15:49 437.345
M-CUBED/EXP-1 PRIME 18 Apr 18:08:23 18:12:26 38° 101° (ESE) 18:16:11 437.505
STRAND 1 18 Apr 18:19:48 18:22:48 16° 93° (E) 18:26:03 437.568
MOZHAYETS 4 18 Apr 18:33:44 18:34:48 11° 292° (WNW) 18:35:33
CUTE-I 18 Apr 18:43:25 18:48:22 37° 262° (W) 18:53:16 437.470
PRISM 18 Apr 18:50:48 18:54:46 49° 100° (E) 18:58:45 437.425
Cubesat XI-IV 18 Apr 18:50:52 18:55:37 31° 263° (W) 19:00:18 437.490
AUBIESAT-1 18 Apr 18:58:02 19:02:16 54° 290° (WNW) 19:06:08 437.475
VERMONT LUNAR 18 Apr 19:03:11 19:06:34 78° 151° (SSE) 19:09:57 437.305
PCSat 18 Apr 19:06:59 19:12:17 54° 62° (ENE) 19:17:35 145.827
GONETS M04 18 Apr 19:33:26 19:36:10 11° 298° (WNW) 19:38:02
M-CUBED/EXP-1 PRIME 18 Apr 19:44:24 19:46:56 15° 297° (WNW) 19:49:11 437.505
CUBESAT XI-V 18 Apr 19:45:38 19:49:19 23° 288° (WNW) 19:52:53 437.345
